TITAN 3C TRANSTAGE DEB, 40551

Orbit data source: Space-Track

TITAN 3C TRANSTAGE DEB, 40551 is space debris in HEO originally from a launch on Tue, 21 Dec 1965 UTC launched from the Air Force Eastern Test Range (AFETR). Debris objects in space refer to the collection of defunct objects orbiting the Earth. Examples of debris include non-operational satellites, rocket bodies, and fragments generated from explosions, collisions, or faulty payload assembly.

Loading next visibility...
Identifier
40551, 1965-108DR
Orbit
HEO
Country
Flag of USUS
Related business
Manufacturer
Unknown
Mission
Spacecraft
Bus & Motor
Unknown
Mass
Unknown
Launch date (UTC)
1965-12-21 (60 years ago)
Launch vehicle
Unknown
Launch site
Air Force Eastern Test Range (AFETR)
Object type
Payload
Rocket body
Debris
Shape & HBR
Unknown shape, 0.1 m
Radar Cross Section
Small (<0.1 m²)

Expand to show TLE details & history
Last TLE update: 7 months ago

TLE from 7 months ago
0 TITAN 3C TRANSTAGE DEB
1 40551U 65108DR  25255.24810346  .00000053  00000-0  17301-2 0  9994
2 40551  26.3678 174.2868 6826893 208.8141  84.6448  2.63623077159860
Epoch: 2025-09-12T05:57Z
TLE epoch observation values (Epoch: 2025-09-12T05:57:16.138Z)
Latitude
0.00016°
Longitude
93.51504°
Altitude
23,073.181 km
Speed
3.01 km/s
True Right ascension
11h 37m 19s
True Declination
0° 00' 01"
Sunlit
Object was in daylight at epoch
Visualization orbit readout
Latitude
Unknown
Longitude
Unknown
Altitude
Unknown
Speed
Unknown
Apparent Right ascension
Unknown
Apparent Declination
Unknown
Sunlit
N/A
Visualization observer readout
Local Sidereal Time
02:02:37
Azimuth
Unknown
Elevation
Unknown
Doppler factor
Unknown
Orbital elements
Apogee altitude
30,874.259 km
Perigee altitude
646.68 km
Semi-major axis
22,138.606 km
Eccentricity
0.68269
Inclination
26.3678°
RAAN
174.2868°
Arg. of periapsis
208.8141°
True anomaly
151.24402°
Mean anomaly
84.6448°
Eccentric anomaly
118.89157°
Mean motion
0.6589 °/min
Orbital period
546.37 mins
BSTAR
0.0017301
Loading maneuver chart data...
Computing Atmospheric mass density...

Documentation

Showing up to 5 results
|